Change the Weather History Date:

Sunday, June 2, 2013

  Actual Average Record
Temperature  
Mean Temperature 72 °F -  
Max Temperature 80 °F 79 °F 93 °F (1951)
Min Temperature 66 °F 57 °F 41 °F (2003)
Cooling Degree Days 7    
Growing Degree Days 22 (Base 50)    
Moisture  
Dew Point 61 °F    
Average Humidity 75    
Maximum Humidity 94    
Minimum Humidity 52    
Precipitation  
Precipitation 0.00 in - - ()
Sea Level Pressure  
Sea Level Pressure 29.88 in    
Wind  
Wind Speed 8 mph (West)    
Max Wind Speed 13 mph    
Max Gust Speed -    
Visibility 10 miles    
Events      
Averages and records for this station are not official NWS values.
T = Trace of Precipitation, MM = Missing Value Source: NWS Daily Summary

Daily Weather History Graph

Daily Weather History Graph

Search for Another Location

Airport or City:

Trip Planner

Search our weather history database for the weather conditions in past years. The results will help you decide how hot, cold, wet, or windy it might be!

Date:

Astronomy

Jun. 02, 2013 Rise Set
Actual Time 6:13 AM EDT 8:58 PM EDT
Civil Twilight 5:41 AM EDT 9:30 PM EDT
Nautical Twilight 5:01 AM EDT 10:09 PM EDT
Astronomical Twilight 4:17 AM EDT 10:55 PM EDT
Moon 2:37 AM EDT (6/2) 3:30 PM EDT (6/2)
Length of Visible Light 15h 48m
Length of Day
14h 45m
Waning Crescent, 31% of the Moon is Illuminated
Jun 2
Waning Crescent
Jun 8
New
Jun 16
First Quarter
Jun 23
Full
Jun 30
Last Quarter

Hourly Weather History & Observations

Time (EDT) Temp. Dew Point Humidity Pressure Visibility Wind Dir Wind Speed Gust Speed Precip Events Conditions
12:53 AM 70.0 °F 66.0 °F 87% 29.84 in 10.0 mi WSW 10.4 mph - N/A   Clear
1:53 AM 69.1 °F 64.9 °F 87% 29.85 in 10.0 mi WSW 8.1 mph - N/A   Mostly Cloudy
2:34 AM 68.0 °F 64.4 °F 88% 29.85 in 10.0 mi SW 8.1 mph - N/A   Overcast
2:53 AM 66.9 °F 64.9 °F 93% 29.84 in 10.0 mi SSW 6.9 mph - N/A   Scattered Clouds
3:53 AM 68.0 °F 64.0 °F 87% 29.85 in 10.0 mi SW 8.1 mph - N/A   Overcast
4:10 AM 68.0 °F 64.4 °F 88% 29.86 in 10.0 mi SW 8.1 mph - N/A   Overcast
4:44 AM 66.2 °F 64.4 °F 94% 29.86 in 10.0 mi SW 8.1 mph - N/A   Mostly Cloudy
4:53 AM 66.9 °F 64.0 °F 90% 29.84 in 10.0 mi SW 5.8 mph - N/A   Mostly Cloudy
5:53 AM 66.0 °F 63.0 °F 90% 29.86 in 10.0 mi WSW 5.8 mph - N/A   Scattered Clouds
6:03 AM 66.2 °F 62.6 °F 88% 29.87 in 10.0 mi SW 8.1 mph - N/A   Mostly Cloudy
6:18 AM 66.2 °F 62.6 °F 88% 29.88 in 10.0 mi SW 6.9 mph - N/A   Scattered Clouds
6:53 AM 66.0 °F 63.0 °F 90% 29.88 in 10.0 mi SW 6.9 mph - N/A   Partly Cloudy
7:53 AM 66.9 °F 63.0 °F 87% 29.89 in 10.0 mi SW 6.9 mph - N/A   Mostly Cloudy
7:57 AM 66.2 °F 62.6 °F 88% 29.90 in 10.0 mi WSW 5.8 mph - N/A   Scattered Clouds
8:53 AM 69.1 °F 62.1 °F 78% 29.90 in 10.0 mi WSW 6.9 mph - N/A   Partly Cloudy
9:29 AM 69.8 °F 60.8 °F 73% 29.91 in 10.0 mi West 8.1 mph - N/A   Mostly Cloudy
9:48 AM 71.6 °F 60.8 °F 69% 29.91 in 10.0 mi WNW 9.2 mph - N/A   Scattered Clouds
9:53 AM 71.1 °F 61.0 °F 70% 29.90 in 10.0 mi WNW 6.9 mph - N/A   Mostly Cloudy
10:53 AM 73.0 °F 60.1 °F 64% 29.91 in 10.0 mi WSW 10.4 mph - N/A   Partly Cloudy
11:53 AM 75.0 °F 62.1 °F 64% 29.91 in 10.0 mi West 8.1 mph - N/A   Scattered Clouds
12:53 PM 75.0 °F 59.0 °F 57% 29.91 in 10.0 mi Variable 3.5 mph - N/A   Scattered Clouds
1:53 PM 75.0 °F 60.1 °F 60% 29.90 in 10.0 mi West 5.8 mph - N/A   Mostly Cloudy
2:53 PM 75.9 °F 59.0 °F 56% 29.88 in 10.0 mi SW 5.8 mph - N/A   Mostly Cloudy
3:53 PM 78.1 °F 59.0 °F 52% 29.87 in 10.0 mi West 8.1 mph - N/A   Mostly Cloudy
4:53 PM 77.0 °F 59.0 °F 54% 29.86 in 10.0 mi WNW 6.9 mph - N/A   Mostly Cloudy
5:53 PM 75.9 °F 59.0 °F 56% 29.86 in 10.0 mi NW 6.9 mph - N/A   Mostly Cloudy
6:53 PM 73.9 °F 59.0 °F 59% 29.87 in 10.0 mi NW 12.7 mph - N/A   Mostly Cloudy
7:53 PM 73.0 °F 59.0 °F 61% 29.88 in 10.0 mi NW 9.2 mph - N/A   Mostly Cloudy
8:53 PM 71.1 °F 57.9 °F 63% 29.89 in 10.0 mi NW 4.6 mph - N/A   Clear
9:53 PM 70.0 °F 57.9 °F 65% 29.91 in 10.0 mi NW 4.6 mph - N/A   Mostly Cloudy
10:53 PM 68.0 °F 59.0 °F 73% 29.93 in 10.0 mi NW 6.9 mph - N/A   Partly Cloudy
11:53 PM 68.0 °F 59.0 °F 73% 29.94 in 10.0 mi North 9.2 mph - N/A   Overcast